GPS BIIRM-8 (PRN 05) (35752 NORAD) Tracking and Keplerian Element Data

This shows tracking and keplerian element data for the satellite.

Feedback or suggestion? Click here.




ElementValue
Catalog35752
NameGPS BIIRM-8 (PRN 05)
Epoch Orbit6541
Epoch Day202.19815396
Epoch Year2018
RAAN143.3325
Inclination54.3284
Eccentricity0.00537
Argument of Perigee34.5591
Mean Anonmoly228.576
Mean Motion2.00554698
Decay Rate-1.3E-07
L11 35752U 09043A 18202.19815396 -.00000013 00000-0 00000+0 0 9997
L22 35752 54.3284 143.3325 0053700 34.5591 228.5760 2.00554698 65418

Live tracking and technical data element details for GPS BIIRM-8 (PRN 05) (NORAD 35752). GPS BIIRM-8 (PRN 05) can be tracked NOW for your location showing map with azimuth and elevation plus other details from your city location.

Track the satellite on the map from your city or location and see movement details for azimuth, elevation, latitude, longitude, range, height, and movement on the map or in text.







IsCatalogInMostPopularTable: catalog: 35752, numindb: 56
Update: records affected: 1



GetName: 35752 GPS BIIRM-8 (PRN 05)

Hit Count: updated at: Mon, 23 Jul 2018 08:01:23 GMT